STARLINK-3048, 49148

Orbit data source: Space-Track

STARLINK-3048, 49148 is a payload satellite owned by SpaceX/Seattle (US) in LEO that was launched on Tue, 14 Sep 2021 UTC via an FALCON 9 launch vehicle from the Air Force Western Test Range (AFWTR). Payload-class satellites include a variety of spacecraft equipped with specific instruments for various scientific and technological missions. These include communications satellites like Starlink; space stations such as the ISS; scientific satellites like the Hubble; Earth observation satellites from companies like Planet Labs, Umbra, and HawkEye 360; GPS; miniature CubeSats for education and research; and military/defense satellites.

Loading next visibility...
Identifier
49148, 2021-082U
Orbit
LEO
Country
Flag of USUS
Related business
Manufacturer
SpaceX/Seattle
Mission
Operational Commercial Communications
Bus & Motor
STARLINK, Unknown motor
Mass
297 kg wet, ~275 kg dry
Launch date (UTC)
2021-09-14 (4 years ago)
Launch vehicle
FALCON 9
Launch site
Air Force Western Test Range (AFWTR)
Object type
Payload
Rocket body
Debris
Shape & HBR
Box + 1 Pan, 10.1 m
Radar Cross Section
13.562 m², Large (>1 m²)

Expand to show TLE details & history
Last TLE update: 12 hours ago

TLE from 12 hours ago
0 STARLINK-3048
1 49148U 21082U   26071.93699923  .00001771  00000-0  15936-3 0  9998
2 49148  69.9982 267.0474 0002995 266.9197  93.1619 14.97536781246930
Epoch: 2026-03-12T22:29Z
TLE epoch observation values (Epoch: 2026-03-12T22:29:16.733Z)
Latitude
-0.00002°
Longitude
119.14795°
Altitude
577.048 km
Speed
7.572 km/s
True Right ascension
17h 48m 11s
True Declination
0° 00' 00"
Sunlit
Object was in daylight at epoch
Visualization orbit readout
Latitude
Unknown
Longitude
Unknown
Altitude
Unknown
Speed
Unknown
Apparent Right ascension
Unknown
Apparent Declination
Unknown
Sunlit
N/A
Visualization observer readout
Local Sidereal Time
15:06:02
Azimuth
Unknown
Elevation
Unknown
Doppler factor
Unknown
Orbital elements
Apogee altitude
574.541 km
Perigee altitude
570.377 km
Semi-major axis
6,950.596 km
Eccentricity
0.0003
Inclination
69.9982°
RAAN
267.0474°
Arg. of periapsis
266.9197°
True anomaly
93.19617°
Mean anomaly
93.1619°
Eccentric anomaly
93.17903°
Mean motion
3.7455 °/min
Orbital period
96.12 mins
BSTAR
0.00015936
Loading maneuver chart data...
Computing Atmospheric mass density...

Documentation

Showing up to 5 results
|